Regional Weather Roundup
Issued by NWS Goodland, KS

Home | Current Version | Previous Version | Graphics & Text | Print | Product List | Glossary On
Versions: 1 2 3 4 5 6 7 8 9 10 11 12 13 14 15 16 17 18 19 20 21 22 23 24 25 26 27 28 29 30 31 32 33 34 35 36 37 38 39 40 41 42 43 44 45 46 47 48 49 50
000
ASUS43 KGLD 240708
RWRGLD

GOODLAND FORECAST AREA HOURLY WEATHER ROUNDUP
NATIONAL WEATHER SERVICE GOODLAND KS
100 AM MDT THU JUL 24 2014

...OFFICIAL OBSERVATIONS...

CITY           SKY/WX    TMP DP  RH WIND       PRES   REMARKS
GOODLAND KS    CLEAR     69  65  86 S14       30.19S
HILL CITY KS   CLEAR     67  62  84 CALM      30.15F
IMPERIAL NEB   CLEAR     67  62  84 SE10      30.16S
MCCOOK NEB     CLEAR     67  63  87 E6        30.15F
AKRON CO       PTCLDY    73  63  70 S18G25    30.18F
BURLINGTON CO  CLEAR     72  66  81 SE15      30.20F
LIMON CO       PTCLDY    67  63  87 SE6       30.25F
$$

...UNOFFICIAL OBSERVATIONS...

CITY           SKY/WX    TMP DP  RH WIND       PRES   REMARKS
COLBY KS       CLEAR     72  64  78 SE16      30.18S
GOVE KS          N/A     70  32  24 MISG        N/A
LENORA KS        N/A     68  32  26 MISG        N/A
NORTON KS      CLEAR     68  59  73 SE7       30.14S
OBERLIN KS     FAIR      70  61  73 SE10      30.14F
SHARON SPRINGS   N/A     72  68  87 SE12        N/A
ST FRANCIS KS  CLEAR     70  61  73 SE17      30.14F
TRIBUNE KS     PTCLDY    72 N/A N/A SE15      30.20F
WAKEENEY KS      N/A     70  61  73 MISG        N/A
KIT CARSON CO    N/A     74  65  74 N12         N/A
WRAY CO          N/A     72  63  73 E7        30.16F
YUMA CO          N/A     71  64  78 SE7         N/A
$$



USA.gov is the U.S. government's official web portal to all federal, state and local government web resources and services.